FW6214 Weather Reports


time (UTC)temp
C
wind
direction
speed
KPH
gust
KPH
rain 1hr
cm
rain 24hr
cm
rain mn
cm
humidity
%
barometer
mb
20260504081812 11 236 0.0 0.0 0.00 0.00 0.00 57 1018.1
20260504081314 11 248 0.0 0.0 0.00 0.00 0.00 57 1018.1
20260504080837 11 260 0.0 0.0 0.00 0.00 0.00 57 1018.1
20260504080345 11 248 0.0 0.0 0.00 0.00 0.00 59 1018.1
20260504070310 11 246 0.0 0.0 0.00 0.00 0.00 61 1018.4
20260504050314 11 248 0.0 4.8 0.00 0.00 0.00 60 1019.1
20260504045826 11 242 0.0 6.4 0.00 0.00 0.00 60 1019.1
20260504045308 11 243 0.0 3.2 0.00 0.00 0.00 60 1019.1
20260504044811 11 234 0.0 1.6 0.00 0.00 0.00 60 1019.0
20260504044313 11 249 0.0 1.6 0.00 0.00 0.00 60 1019.1
20260504043822 11 248 0.0 1.6 0.00 0.00 0.00 60 1019.1
20260504042813 11 243 0.0 0.0 0.00 0.00 0.00 60 1018.8
20260504042315 11 240 0.0 8.0 0.00 0.00 0.00 60 1018.9
20260504041823 11 236 1.6 12.9 0.00 0.00 0.00 60 1018.9
20260504041325 11 236 1.6 12.9 0.00 0.00 0.00 60 1019.0
20260504040832 11 223 0.0 0.0 0.00 0.00 0.00 61 1019.0
20260504040314 11 245 0.0 0.0 0.00 0.00 0.00 61 1019.0
20260504035817 11 239 0.0 0.0 0.00 0.00 0.00 60 1019.0
20260504035327 11 244 0.0 0.0 0.00 0.00 0.00 61 1018.9
20260504034808 11 245 0.0 0.0 0.00 0.00 0.00 62 1018.9
20260504034309 11 250 0.0 0.0 0.00 0.00 0.00 62 1018.8
20260504033837 11 248 0.0 0.0 0.00 0.00 0.00 62 1018.9
20260504033317 11 234 0.0 0.0 0.00 0.00 0.00 61 1018.8
20260504032819 11 240 0.0 0.0 0.00 0.00 0.00 60 1018.9
20260504032308 11 243 0.0 0.0 0.00 0.00 0.00 60 1018.9
20260504031808 11 239 0.0 0.0 0.00 0.00 0.00 59 1018.9
20260504031310 11 237 0.0 0.0 0.00 0.00 0.00 59 1018.9
20260504030819 11 238 0.0 0.0 0.00 0.00 0.00 59 1018.9
20260504030320 11 232 0.0 0.0 0.00 0.00 0.00 59 1019.0
20260504025849 11 238 0.0 0.0 0.00 0.00 0.00 58 1019.1
20260504024821 11 240 0.0 0.0 0.00 0.00 0.00 58 1019.0
20260504024322 11 248 0.0 0.0 0.00 0.00 0.00 58 1019.0
20260504023832 11 241 0.0 0.0 0.00 0.00 0.00 58 1019.1
20260504023314 11 236 0.0 0.0 0.00 0.00 0.00 58 1019.0
20260504022327 11 243 0.0 0.0 0.00 0.00 0.00 58 1018.9
20260504021811 12 245 0.0 0.0 0.00 0.00 0.00 58 1018.8
20260504021311 12 245 0.0 0.0 0.00 0.00 0.00 58 1018.7
20260504020822 12 251 0.0 0.0 0.00 0.00 0.00 58 1018.7
20260504020325 11 257 0.0 0.0 0.00 0.00 0.00 58 1018.7
20260504015855 11 256 0.0 0.0 0.00 0.00 0.00 58 1018.7
20260504015316 11 259 0.0 0.0 0.00 0.00 0.00 58 1018.7
20260504014819 11 259 0.0 0.0 0.00 0.00 0.00 58 1018.7
20260504014347 11 264 0.0 0.0 0.00 0.00 0.00 57 1018.7
20260504013809 11 298 0.0 0.0 0.00 0.00 0.00 58 1018.6
20260504013309 11 271 0.0 0.0 0.00 0.00 0.00 57 1018.6
20260504012837 11 290 0.0 0.0 0.00 0.00 0.00 57 1018.5
20260504012332 11 289 0.0 0.0 0.00 0.00 0.00 57 1018.4
20260504011815 11 289 0.0 0.0 0.00 0.00 0.00 57 1018.4
20260504011339 11 289 0.0 0.0 0.00 0.00 0.00 56 1018.3
20260504010828 11 290 0.0 0.0 0.00 0.00 0.00 56 1018.3
20260504010309 11 290 0.0 0.0 0.00 0.00 0.00 56 1018.3
20260504005813 11 280 0.0 0.0 0.00 0.00 0.00 56 1018.2
20260504005315 12 291 0.0 0.0 0.00 0.00 0.00 56 1018.2
20260504004824 12 289 0.0 0.0 0.00 0.00 0.00 55 1018.2
20260504004348 12 286 0.0 0.0 0.00 0.00 0.00 55 1018.2
20260504003836 12 285 0.0 0.0 0.00 0.00 0.00 56 1018.1
20260504003343 12 285 0.0 0.0 0.00 0.00 0.00 55 1018.0
20260504002826 12 293 0.0 0.0 0.00 0.00 0.00 54 1018.1
20260504002333 12 285 0.0 0.0 0.00 0.00 0.00 54 1018.1
20260504001814 12 277 0.0 0.0 0.00 0.00 0.00 53 1018.2
20260504001317 12 290 0.0 0.0 0.00 0.00 0.00 54 1018.2
20260504000820 12 290 0.0 0.0 0.00 0.00 0.00 53 1018.2
20260504000328 13 288 0.0 0.0 0.00 0.00 0.00 52 1018.2
20260503235811 13 285 0.0 0.0 0.00 0.00 0.00 53 1018.2
20260503235313 13 295 0.0 0.0 0.00 0.00 0.00 51 1018.2
20260503234815 13 276 0.0 0.0 0.00 0.00 0.00 53 1018.1
20260503234325 13 271 0.0 0.0 0.00 0.00 0.00 52 1018.1
20260503233848 13 255 0.0 0.0 0.00 0.00 0.00 50 1018.1
20260503233328 13 262 0.0 3.2 0.00 0.00 0.00 53 1018.0
20260503232809 14 238 0.0 0.0 0.00 0.00 0.00 50 1018.0
20260503232312 14 255 0.0 0.0 0.00 0.00 0.00 50 1018.1
20260503231820 14 247 0.0 0.0 0.00 0.00 0.00 49 1018.1
20260503231324 14 240 0.0 0.0 0.00 0.00 0.00 48 1018.1
20260503230826 14 255 0.0 0.0 0.00 0.00 0.00 49 1018.2
20260503230309 14 266 0.0 6.4 0.00 0.00 0.00 48 1018.2
20260503225815 15 252 0.0 6.4 0.00 0.00 0.00 47 1018.2
20260503225319 15 231 0.0 0.0 0.00 0.00 0.00 47 1018.2
20260503224820 15 239 0.0 0.0 0.00 0.00 0.00 45 1018.2
20260503224328 15 261 0.0 0.0 0.00 0.00 0.00 46 1018.2
20260503223810 15 277 0.0 0.0 0.00 0.00 0.00 47 1018.2
20260503223310 15 281 0.0 0.0 0.00 0.00 0.00 47 1018.3
20260503222821 15 242 0.0 0.0 0.00 0.00 0.00 45 1018.3
20260503222325 15 350 0.0 0.0 0.00 0.00 0.00 47 1018.3
20260503221810 15 262 0.0 0.0 0.00 0.00 0.00 45 1018.3
20260503221312 15 254 0.0 0.0 0.00 0.00 0.00 45 1018.4
20260503220822 15 240 0.0 0.0 0.00 0.00 0.00 45 1018.3
20260503220325 15 251 0.0 0.0 0.00 0.00 0.00 43 1018.3
20260503215828 15 267 0.0 0.0 0.00 0.00 0.00 42 1018.3
20260503215313 15 257 0.0 0.0 0.00 0.00 0.00 45 1018.4
20260503214842 15 252 0.0 0.0 0.00 0.00 0.00 42 1018.3
20260503214332 15 250 0.0 0.0 0.00 0.00 0.00 43 1018.3
20260503213812 15 255 0.0 0.0 0.00 0.00 0.00 44 1018.3
20260503213314 16 282 0.0 4.8 0.00 0.00 0.00 43 1018.4
20260503212823 16 253 0.0 4.8 0.00 0.00 0.00 46 1018.4
20260503212343 16 251 0.0 1.6 0.00 0.00 0.00 43 1018.3
20260503211827 16 255 0.0 1.6 0.00 0.00 0.00 43 1018.4
20260503211328 16 214 0.0 0.0 0.00 0.00 0.00 43 1018.5
20260503210814 16 243 0.0 0.0 0.00 0.00 0.00 44 1018.4
20260503210316 16 228 0.0 6.4 0.00 0.00 0.00 45 1018.5
20260503205824 16 250 0.0 6.4 0.00 0.00 0.00 41 1018.5
20260503205325 16 276 0.0 0.0 0.00 0.00 0.00 46 1018.6
20260503204832 16 255 0.0 0.0 0.00 0.00 0.00 42 1018.7
20260503204327 16 255 0.0 0.0 0.00 0.00 0.00 41 1018.7
20260503203810 15 261 0.0 0.0 0.00 0.00 0.00 43 1018.7
20260503203313 15 238 0.0 0.0 0.00 0.00 0.00 45 1018.8
20260503202823 15 258 0.0 4.8 0.00 0.00 0.00 42 1018.8
20260503202324 15 247 0.0 11.3 0.00 0.00 0.00 44 1018.9
20260503201826 16 258 1.6 11.3 0.00 0.00 0.00 41 1019.0
20260503201335 16 245 0.0 3.2 0.00 0.00 0.00 40 1019.0
20260503200815 16 259 0.0 3.2 0.00 0.00 0.00 42 1019.1
20260503200317 16 235 0.0 3.2 0.00 0.00 0.00 43 1019.1
20260503195845 16 255 0.0 1.6 0.00 0.00 0.00 48 1019.3
20260503195332 15 244 0.0 0.0 0.00 0.00 0.00 47 1019.4
20260503194815 15 242 0.0 8.0 0.00 0.00 0.00 42 1019.5
20260503194319 16 236 0.0 8.0 0.00 0.00 0.00 44 1019.6
20260503193847 15 223 0.0 8.0 0.00 0.00 0.00 46 1019.6
20260503193325 15 240 0.0 0.0 0.00 0.00 0.00 52 1019.6
20260503192835 15 250 0.0 0.0 0.00 0.00 0.00 52 1019.6
20260503192317 15 250 0.0 4.8 0.00 0.00 0.00 50 1019.6
20260503191816 15 241 0.0 4.8 0.00 0.00 0.00 51 1019.8
20260503191332 15 233 0.0 6.4 0.00 0.00 0.00 50 1019.8
20260503190813 15 245 0.0 6.4 0.00 0.00 0.00 51 1019.8
20260503190320 15 231 0.0 0.0 0.00 0.00 0.00 52 1019.9
20260503185843 14 252 0.0 0.0 0.00 0.00 0.00 52 1020.0
20260503185308 15 268 0.0 4.8 0.00 0.00 0.00 51 1020.1
20260503184810 15 246 0.0 8.0 0.00 0.00 0.00 54 1020.0
20260503184313 15 239 0.0 8.0 0.00 0.00 0.00 56 1020.1
20260503183822 14 249 0.0 0.0 0.00 0.00 0.00 52 1020.0
20260503183324 15 246 0.0 0.0 0.00 0.00 0.00 54 1020.1
20260503182854 14 262 0.0 0.0 0.00 0.00 0.00 53 1020.1
20260503182312 13 257 0.0 0.0 0.00 0.00 0.00 55 1020.1
20260503181812 14 253 0.0 0.0 0.00 0.00 0.00 55 1020.2
20260503181339 15 262 0.0 0.0 0.00 0.00 0.00 56 1020.2
20260503180819 14 238 0.0 0.0 0.00 0.00 0.00 54 1020.2
20260503180348 14 249 0.0 6.4 0.00 0.00 0.00 60 1020.1
20260503175854 13 264 0.0 6.4 0.00 0.00 0.00 56 1020.2
20260503175317 13 260 0.0 1.6 0.00 0.00 0.00 57 1020.2
20260503174821 13 246 0.0 0.0 0.00 0.00 0.00 58 1020.1
20260503174328 13 195 0.0 0.0 0.00 0.00 0.00 55 1020.3
20260503173832 14 257 0.0 0.0 0.00 0.00 0.00 52 1020.3
20260503173319 13 250 0.0 4.8 0.00 0.00 0.00 53 1020.3
20260503172815 13 260 0.0 4.8 0.00 0.00 0.00 51 1020.4
20260503172317 13 250 0.0 3.2 0.00 0.00 0.00 55 1020.4
20260503171821 13 241 0.0 3.2 0.00 0.00 0.00 54 1020.5
20260503171332 13 254 0.0 3.2 0.00 0.00 0.00 52 1020.5
20260503170813 13 242 0.0 1.6 0.00 0.00 0.00 52 1020.5
20260503170323 13 246 0.0 6.4 0.00 0.00 0.00 54 1020.6
20260503150814 11 249 0.0 0.0 0.00 0.00 0.00 53 1020.9
20260503150324 11 271 0.0 0.0 0.00 0.00 0.00 59 1020.8
20260503140312 8 43 0.0 0.0 0.00 0.00 0.00 67 1020.5
20260503131335 7 41 0.0 0.0 0.00 0.00 0.00 74 1020.0
20260503130816 7 41 0.0 0.0 0.00 0.00 0.00 75 1019.9
20260503130317 7 49 0.0 0.0 0.00 0.00 0.00 75 1019.9